This is the latest recevied weather packets stored in our database for station/object KC1BRV. If no packets are shown the sender has not sent any weather packets the latest 10 day(s).
| Time | Temp. | Humidity | Pressure | Rain* | Wind** | Luminosity | Snow |
|---|---|---|---|---|---|---|---|
| 1777787431 | 7.78° C | 58% | 1010.1 hPa | 0 mm | - | 0 W/m² | - |
| 1777787127 | 7.78° C | 57% | 1010.3 hPa | 0 mm | - | 0 W/m² | - |
| 1777786825 | 7.78° C | 57% | 1010.2 hPa | 0 mm | - | 0 W/m² | - |
| 1777786523 | 8.33° C | 59% | 1010.2 hPa | 0 mm | - | 0 W/m² | - |
| 1777786220 | 8.33° C | 59% | 1010.4 hPa | 0 mm | - | 0 W/m² | - |
| 1777785917 | 8.33° C | 59% | 1010.6 hPa | 0 mm | - | 0 W/m² | - |
| 1777785613 | 8.33° C | 63% | 1010.7 hPa | 0 mm | - | 0 W/m² | - |
| 1777785309 | 8.33° C | 61% | 1010.8 hPa | 0 mm | - | 0 W/m² | - |
| 1777785007 | 8.33° C | 65% | 1010.8 hPa | 0 mm | - | 0 W/m² | - |
| 1777784702 | 8.33° C | 64% | 1010.9 hPa | 0 mm | - | 0 W/m² | - |
| 1777784400 | 8.33° C | 68% | 1010.8 hPa | 0 mm | - | 0 W/m² | - |
| 1777784097 | 8.33° C | 67% | 1010.8 hPa | 0 mm | - | 0 W/m² | - |
| 1777783794 | 8.33° C | 68% | 1010.7 hPa | 0 mm | - | 0 W/m² | - |
| 1777783491 | 8.33° C | 67% | 1011 hPa | 0 mm | - | 0 W/m² | - |
| 1777783188 | 8.33° C | 66% | 1011.1 hPa | 0 mm | - | 0 W/m² | - |
| 1777782884 | 8.33° C | 64% | 1011.1 hPa | 0 mm | - | 0 W/m² | - |
| 1777782581 | 8.89° C | 61% | 1011.3 hPa | 0 mm | - | 0 W/m² | - |
| 1777782278 | 8.89° C | 60% | 1011.4 hPa | 0 mm | - | 0 W/m² | - |
| 1777781974 | 8.89° C | 61% | 1011.3 hPa | 0 mm | - | 0 W/m² | - |
| 1777781671 | 8.89° C | 60% | 1011.2 hPa | 0 mm | - | 0 W/m² | - |
| 1777781369 | 8.89° C | 62% | 1011 hPa | 0 mm | - | 0 W/m² | - |
| 1777781066 | 8.89° C | 67% | 1011.2 hPa | 0 mm | - | 0 W/m² | - |
| 1777780763 | 8.89° C | 65% | 1011.1 hPa | 0 mm | - | 0 W/m² | - |
| 1777780460 | 8.89° C | 70% | 1011.3 hPa | 0 mm | - | 0 W/m² | - |
| 1777780157 | 8.89° C | 73% | 1011.4 hPa | 0 mm | - | 0 W/m² | - |
* Rain latest hour (hover to see other rain measurements)
** Current wind speed in m/s (hover to see current wind gust speed)